[[{"header":{"parameterUnit":"m.s-1","parameterCategory":1,"la1":30.2991,"la2":30.254,"lo1":-89.0895,"lo2":-89.0444,"dy":0.0017,"dx":0.0017,"nx":28,"ny":28,"refTime":"2024-05-03T21:00:00:Z","depth":0,"parameterNumber":2,"parameterNumberName":"U-component_of_WINDS"},"data":[0,0,0,0,0,0,0,0,0,0,0,0,0,0,0,0,0,0,0,0,0,0,0,0,0,0,0,0,0,0,0,0,0,0,0,0,0,0,0,0,0,0,0,0,0,0,0,0,0,0,0,0,0,0,0,0,0,0,-1.0477,-1.0478,0,-1.0505,-1.0505,-1.0506,-1.0516,-1.0516,-1.0515,-1.0515,-1.0544,-1.0545,-1.0546,0,0,0,0,0,0,0,0,0,0,0,0,0,-1.0433,-1.0433,-1.0477,-1.0478,-1.0478,-1.0505,-1.0505,-1.0506,-1.0516,-1.0516,-1.0515,-1.0515,-1.0544,-1.0545,-1.0546,0,0,0,0,0,0,0,0,0,0,0,0,0,-1.0455,-1.0434,-1.0477,-1.0486,-1.0487,-1.0505,-1.0505,-1.0506,-1.0516,-1.0516,-1.0515,-1.0515,-1.0544,-1.0545,-1.0546,-1.0557,0,0,-1.055,-1.0551,0,0,0,0,0,0,0,0,-1.0454,-1.0457,-1.0485,-1.0486,-1.0487,-1.0507,-1.05,-1.0523,-1.0516,-1.0505,-1.0515,-1.0515,-1.0532,-1.0534,-1.054,-1.0559,-1.056,-1.055,-1.0551,-1.0552,-1.0552,0,0,0,0,0,0,0,-1.0452,-1.0456,-1.0488,-1.0485,-1.0486,-1.0489,-1.0492,-1.0505,-1.0519,-1.0506,-1.0507,-1.051,-1.0533,-1.0538,-1.054,-1.056,-1.055,-1.0551,-1.0552,-1.0553,-1.0589,-1.0589,0,0,0,0,0,0,-1.0449,-1.0455,-1.0487,-1.0489,-1.047,-1.049,-1.0493,-1.0501,-1.0519,-1.0521,-1.051,-1.051,-1.0536,-1.0539,-1.0542,-1.0555,-1.0552,-1.0553,-1.0554,-1.0588,-1.0589,-1.0589,0,0,0,0,0,0,-1.0448,-1.0452,-1.0486,-1.0472,-1.0477,-1.0491,-1.0499,-1.0501,-1.0507,-1.0522,-1.0524,-1.0513,-1.0536,-1.054,-1.0553,-1.0556,-1.0553,-1.0555,-1.0588,-1.0588,-1.0589,-1.0583,0,0,0,0,0,0,-1.0447,-1.0452,-1.0456,-1.0472,-1.0477,-1.0497,-1.0499,-1.0502,-1.0509,-1.051,-1.0526,-1.0528,-1.0536,-1.0551,-1.0554,-1.0558,-1.0556,-1.0588,-1.0588,-1.0589,-1.0583,-1.0583,-1.0583,0,0,0,0,0,-1.0445,-1.0454,-1.0457,-1.046,-1.0483,-1.0498,-1.0501,-1.051,-1.0509,-1.0514,-1.0523,-1.0528,-1.0555,-1.0552,-1.0556,-1.056,-1.0588,-1.0588,-1.0589,-1.0583,-1.0583,-1.0583,0,0,0,0,0,0,-1.0439,-1.0456,-1.0459,-1.0473,-1.0484,-1.0499,-1.0505,-1.051,-1.0521,-1.0521,-1.0532,-1.0535,-1.0548,-1.0555,-1.0552,-1.0572,-1.0572,-1.0573,-1.0566,-1.0566,-1.0566,-1.0564,-1.0557,0,0,0,0,0,-1.0439,-1.0449,-1.0464,-1.0474,-1.048,-1.0491,-1.0498,-1.0504,-1.0516,-1.052,-1.0531,-1.0542,-1.0553,-1.056,-1.0571,-1.0584,-1.0587,-1.0589,-1.0589,-1.0589,-1.059,-1.0596,-1.0597,-1.059,-1.059,-1.059,0,0,-1.0439,-1.045,-1.0456,-1.0473,-1.0482,-1.0492,-1.0495,-1.0506,-1.0514,-1.0522,-1.0535,-1.0543,-1.0556,-1.0569,-1.0575,-1.0576,-1.0592,-1.0589,-1.0589,-1.059,-1.0597,-1.0597,-1.0598,-1.059,-1.059,-1.059,0,0,-1.0445,-1.0454,-1.0464,-1.0473,-1.0486,-1.0493,-1.0496,-1.051,-1.0516,-1.0529,-1.0535,-1.0544,-1.0563,-1.0572,-1.0579,-1.0587,-1.0591,-1.059,-1.0591,-1.0597,-1.0598,-1.0598,-1.0601,-1.0602,-1.0591,-1.0591,-1.0591,0,-1.0444,-1.046,-1.0468,-1.0479,-1.0486,-1.0493,-1.0503,-1.0511,-1.0527,-1.0532,-1.0532,-1.0556,-1.0565,-1.058,-1.0582,-1.0587,-1.059,-1.0589,-1.0597,-1.0598,-1.0598,-1.0601,-1.0602,-1.0591,-1.0591,-1.0591,-1.0591,0,-1.0457,-1.0468,-1.0474,-1.0489,-1.0497,-1.0507,-1.0517,-1.0524,-1.0529,-1.0536,-1.0549,-1.056,-1.0574,-1.0577,-1.0583,-1.0593,-1.0593,-1.0595,-1.0595,-1.0598,-1.0601,-1.0602,-1.059,-1.0591,-1.0591,-1.0591,0,0,-1.0461,-1.048,-1.0482,-1.0488,-1.0503,-1.0511,-1.0521,-1.0533,-1.0539,-1.055,-1.0558,-1.0574,-1.0575,-1.0583,-1.0589,-1.0595,-1.06,-1.0596,-1.0597,-1.0596,-1.0611,-1.061,-1.0611,-1.0603,-1.0603,-1.0603,-1.061,0,-1.0469,-1.0487,-1.0494,-1.0509,-1.0518,-1.0525,-1.0533,-1.0543,-1.055,-1.0559,-1.0567,-1.0577,-1.0579,-1.0583,-1.0589,-1.0598,-1.0603,-1.0598,-1.0611,-1.0611,-1.0607,-1.0612,-1.0611,-1.0617,-1.0611,-1.0611,-1.0612,0,-1.0481,-1.0491,-1.0506,-1.0518,-1.0522,-1.053,-1.0541,-1.055,-1.0561,-1.0566,-1.0574,-1.0579,-1.059,-1.0589,-1.0603,-1.06,-1.0605,-1.061,-1.0611,-1.0612,-1.0612,-1.0614,-1.0619,-1.062,-1.0613,-1.0613,-1.0613,0,-1.0482,-1.0499,-1.051,-1.0515,-1.053,-1.0535,-1.0541,-1.0552,-1.0559,-1.0569,-1.0573,-1.0584,-1.0591,-1.0599,-1.0607,-1.0606,-1.0621,-1.0621,-1.0625,-1.0625,-1.0628,-1.0628,-1.0634,-1.0632,-1.0632,-1.0631,-1.0631,0,-1.049,-1.0499,-1.051,-1.0517,-1.0527,-1.0535,-1.0545,-1.0552,-1.0561,-1.0569,-1.0575,-1.0583,-1.0593,-1.0602,-1.0609,-1.0619,-1.0622,-1.0626,-1.0628,-1.0626,-1.0625,-1.063,-1.063,-1.0632,-1.0632,-1.0632,-1.0632,0,-1.0493,-1.0501,-1.0513,-1.0526,-1.0529,-1.0536,-1.0547,-1.0553,-1.056,-1.057,-1.0573,-1.0584,-1.0594,-1.0603,-1.0618,-1.0622,-1.0633,-1.0635,-1.0629,-1.063,-1.0633,-1.0633,-1.0643,-1.0645,-1.0641,-1.0641,-1.0641,0,-1.0498,-1.0505,-1.0517,-1.0523,-1.0529,-1.0538,-1.0545,-1.0553,-1.0559,-1.0571,-1.0577,-1.0587,-1.0597,-1.0613,-1.0623,-1.0633,-1.0635,-1.0638,-1.0637,-1.0635,-1.0635,-1.0635,-1.0636,-1.0638,-1.0638,-1.0638,-1.0638,0,-1.0505,-1.0509,-1.0518,-1.0528,-1.0535,-1.0543,-1.0552,-1.0556,-1.0566,-1.0573,-1.0583,-1.059,-1.0604,-1.0615,-1.0626,-1.0633,-1.0637,-1.0639,-1.064,-1.0638,-1.0634,-1.0636,-1.0629,-1.0638,-1.0638,-1.0638,-1.0638,-1.0638,-1.0509,-1.0515,-1.0525,-1.0535,-1.0542,-1.0549,-1.0556,-1.0563,-1.0572,-1.0583,-1.0587,-1.0598,-1.0608,-1.0624,-1.063,-1.0639,-1.064,-1.0642,-1.0642,-1.0643,-1.0642,-1.0633,-1.0641,-1.0641,-1.0641,-1.0641,-1.0641,0,-1.0517,-1.0523,-1.0532,-1.0543,-1.0551,-1.0553,-1.0562,-1.0568,-1.0578,-1.0586,-1.0595,-1.0606,-1.0616,-1.0626,-1.0637,-1.0641,-1.0644,-1.0644,-1.0644,-1.0645,-1.0641,-1.0639,-1.0642,-1.0642,-1.0642,-1.0642,-1.0642,-1.0642,-1.0522,-1.0532,-1.0536,-1.055,-1.0556,-1.0566,-1.0571,-1.0578,-1.0585,-1.0598,-1.0606,-1.0611,-1.062,-1.0631,-1.0641,-1.0643,-1.0647,-1.0647,-1.065,-1.0646,-1.0646,-1.0645,-1.0643,-1.0647,-1.0647,-1.0653,-1.0653,-1.0653]},{"header":{"parameterUnit":"m.s-1","parameterCategory":1,"la1":30.2991,"la2":30.254,"lo1":-89.0895,"lo2":-89.0444,"dy":0.0017,"dx":0.0017,"nx":28,"ny":28,"refTime":"2024-05-03T21:00:00:Z","depth":0,"parameterNumber":3,"parameterNumberName":"V-component_of_WINDS"},"data":[0,0,0,0,0,0,0,0,0,0,0,0,0,0,0,0,0,0,0,0,0,0,0,0,0,0,0,0,0,0,0,0,0,0,0,0,0,0,0,0,0,0,0,0,0,0,0,0,0,0,0,0,0,0,0,0,0,0,1.6425,1.6424,0,1.6338,1.6337,1.6336,1.6288,1.6288,1.6288,1.6288,1.6195,1.6193,1.619,0,0,0,0,0,0,0,0,0,0,0,0,0,1.6546,1.6544,1.6425,1.6424,1.6423,1.6338,1.6337,1.6336,1.6288,1.6288,1.6288,1.6288,1.6196,1.6193,1.619,0,0,0,0,0,0,0,0,0,0,0,0,0,1.648,1.6544,1.6425,1.6389,1.6385,1.6338,1.6337,1.6335,1.6288,1.6288,1.6288,1.6288,1.6197,1.6193,1.619,1.6171,0,0,1.6179,1.6177,0,0,0,0,0,0,0,0,1.6484,1.6475,1.6395,1.6391,1.6387,1.6324,1.6346,1.628,1.6288,1.6325,1.6288,1.6288,1.6238,1.6231,1.6215,1.6167,1.6163,1.6179,1.6177,1.6175,1.6174,0,0,0,0,0,0,0,1.6488,1.6479,1.639,1.6394,1.6389,1.6376,1.6366,1.6333,1.6283,1.6322,1.6318,1.6309,1.6235,1.6218,1.6212,1.6162,1.6179,1.6176,1.6173,1.6172,1.6095,1.6095,0,0,0,0,0,0,1.6499,1.6483,1.6393,1.6388,1.6436,1.6374,1.6363,1.6344,1.6283,1.6274,1.6309,1.6307,1.6225,1.6217,1.6209,1.6183,1.6175,1.6172,1.617,1.6095,1.6095,1.6095,0,0,0,0,0,0,1.6502,1.6492,1.6396,1.6434,1.6421,1.6372,1.6351,1.6342,1.6325,1.6274,1.6264,1.6301,1.6224,1.6214,1.6181,1.6179,1.617,1.6167,1.6095,1.6095,1.6095,1.6132,0,0,0,0,0,0,1.6506,1.6493,1.6486,1.6435,1.642,1.6371,1.6351,1.6341,1.632,1.6316,1.6264,1.6255,1.6223,1.6187,1.6178,1.6174,1.6164,1.6095,1.6095,1.6095,1.6131,1.6134,1.6136,0,0,0,0,0,1.651,1.6499,1.6486,1.6475,1.641,1.6371,1.6363,1.6327,1.632,1.6312,1.6279,1.6257,1.6182,1.6184,1.6173,1.6169,1.6095,1.6095,1.6095,1.613,1.6133,1.6136,0,0,0,0,0,0,1.6549,1.6491,1.6476,1.6448,1.6415,1.6364,1.6352,1.6332,1.6299,1.6297,1.6254,1.6242,1.6214,1.6188,1.6192,1.6148,1.6136,1.6134,1.6166,1.6169,1.6171,1.6177,1.6161,0,0,0,0,0,1.6555,1.653,1.648,1.646,1.6444,1.6402,1.6383,1.636,1.6323,1.6308,1.6273,1.6238,1.6206,1.6186,1.6154,1.6128,1.6115,1.6119,1.6122,1.6124,1.6123,1.6107,1.6108,1.6096,1.6096,1.6096,0,0,1.6565,1.6531,1.6517,1.6467,1.6438,1.6412,1.639,1.6363,1.6343,1.6304,1.6271,1.6245,1.6202,1.6173,1.6158,1.6151,1.6124,1.6125,1.6127,1.6124,1.6108,1.6109,1.611,1.6096,1.6096,1.6096,0,0,1.6571,1.6543,1.6523,1.6496,1.6454,1.6426,1.6422,1.6374,1.6355,1.6322,1.6293,1.6268,1.6215,1.6186,1.6164,1.6162,1.614,1.6153,1.6165,1.6151,1.6152,1.6152,1.6151,1.6152,1.6152,1.6152,1.6152,0,1.6589,1.655,1.6515,1.6491,1.6469,1.6435,1.6415,1.639,1.6339,1.6325,1.6318,1.6251,1.622,1.6184,1.6184,1.6167,1.616,1.6158,1.6155,1.6155,1.6155,1.6154,1.6153,1.6154,1.6154,1.6153,1.6153,0,1.6574,1.6547,1.6536,1.6491,1.6468,1.6446,1.6407,1.6389,1.6368,1.634,1.6308,1.627,1.623,1.622,1.6198,1.6181,1.6178,1.6163,1.6149,1.6159,1.6157,1.6156,1.6156,1.6156,1.6155,1.6155,0,0,1.6599,1.6537,1.6533,1.6513,1.6465,1.6443,1.642,1.6383,1.6368,1.6335,1.6313,1.627,1.6257,1.6233,1.6208,1.6195,1.6196,1.6182,1.618,1.6185,1.6175,1.6185,1.6185,1.6182,1.6182,1.6181,1.6178,0,1.6598,1.6555,1.6524,1.6493,1.6468,1.6436,1.6415,1.6384,1.6358,1.6333,1.6304,1.6274,1.6259,1.6244,1.6231,1.6199,1.6193,1.6199,1.616,1.6159,1.6171,1.6184,1.6194,1.6193,1.6177,1.6177,1.6177,0,1.659,1.656,1.6527,1.6484,1.6472,1.6454,1.6418,1.6395,1.6358,1.634,1.6315,1.629,1.6263,1.6253,1.6215,1.622,1.6203,1.6185,1.6184,1.6178,1.6168,1.6177,1.6192,1.6191,1.6175,1.6175,1.6175,0,1.6612,1.6563,1.6537,1.6521,1.6469,1.6458,1.6436,1.6399,1.638,1.6348,1.6335,1.63,1.6281,1.6254,1.622,1.6217,1.6186,1.6173,1.617,1.6171,1.6163,1.6164,1.6174,1.6154,1.6154,1.6154,1.6154,0,1.6613,1.6594,1.6547,1.653,1.6508,1.6473,1.6451,1.6426,1.6395,1.6373,1.6343,1.6323,1.628,1.6254,1.6228,1.62,1.6192,1.6176,1.6169,1.6178,1.618,1.6165,1.6164,1.6154,1.6154,1.6154,1.6154,0,1.6633,1.6601,1.657,1.6525,1.6514,1.6499,1.646,1.6443,1.6417,1.6389,1.6381,1.6339,1.6308,1.6272,1.6228,1.621,1.6184,1.6175,1.6197,1.6193,1.6191,1.6192,1.6191,1.6189,1.6172,1.6172,1.6172,0,1.6635,1.662,1.6574,1.6558,1.6538,1.6512,1.6492,1.6457,1.6438,1.6397,1.6384,1.6351,1.6322,1.6274,1.6239,1.6205,1.6194,1.6196,1.6188,1.6199,1.6193,1.6194,1.6192,1.6198,1.6198,1.6199,1.6199,0,1.6643,1.6628,1.6602,1.657,1.6548,1.6521,1.6492,1.648,1.644,1.6419,1.6388,1.6366,1.6323,1.629,1.6252,1.6228,1.6207,1.6202,1.6199,1.6208,1.6221,1.6214,1.6202,1.6202,1.6201,1.6201,1.6201,1.6201,1.6653,1.6639,1.6605,1.6576,1.6552,1.6527,1.6509,1.6481,1.6455,1.6418,1.6399,1.6367,1.6332,1.628,1.6257,1.6232,1.6225,1.6221,1.6219,1.6219,1.6221,1.6227,1.6225,1.6225,1.6225,1.6225,1.6225,0,1.6659,1.6636,1.6611,1.6573,1.6551,1.6535,1.6503,1.6485,1.6458,1.6428,1.6401,1.6365,1.6334,1.6298,1.6264,1.625,1.624,1.6243,1.6242,1.6237,1.623,1.6236,1.6252,1.6252,1.6252,1.6252,1.6252,1.6252,1.6659,1.6634,1.6616,1.6578,1.6554,1.6525,1.6508,1.6484,1.646,1.6422,1.6397,1.6374,1.6341,1.6305,1.6275,1.6265,1.6254,1.626,1.6247,1.624,1.6238,1.6236,1.6241,1.6258,1.6258,1.6256,1.6256,1.6256]}]]